Regional Weather Roundup
Issued by NWS

Home | Current Version | Previous Version | Text Only | Print | Product List | Glossary Off
Versions: 1 2 3 4 5 6 7 8 9 10 11 12 13 14 15 16 17 18 19 20 21 22 23 24 25 26 27 28 29 30 31 32 33 34 35 36 37 38 39 40 41 42 43 44 45 46 47 48 49 50

000
ASUS43 KIND 200809
RWRIN

WEATHER ROUNDUP FOR INDIANA
NATIONAL WEATHER SERVICE INDIANAPOLIS IN
300 AM EST FRI JAN 20 2017

NOTE: "FAIR" INDICATES FEW OR NO CLOUDS BELOW 12,000 FEET WITH NO
SIGNIFICANT WEATHER AND/OR OBSTRUCTIONS TO VISIBILITY.

* - STATION DOES NOT REPORT WEATHER SUCH AS PRECIPITATION OR FOG.

+ - STATION NOT QUALITY CONTROLLED BY THE NATIONAL WEATHER SERVICE.
    USE DATA WITH CAUTION...ESPECIALLY DEWPOINT AND RELATIVE
    HUMIDITY OBSERVATIONS.

INZ001>003-010>013-019-020-200900-
NORTHWEST INDIANA

CITY           SKY/WX    TMP DP  RH WIND       PRES   REMARKS
GARY /AIRPORT/ RAIN      39  38  99 NE6       29.65F
KNOX *+        CLOUDY    37  34  87 E8        29.64F
LA PORTE +     LGT RAIN  38  37  99 E9        29.65F
MICHIGAN CITY+ LGT RAIN  37  37 100 E5        29.66F
MONTICELLO +   LGT RAIN  41  40  95 E6        29.61F
RENSSELAER +   LGT RAIN  41  41 100 NE7       29.63S
VALPARAISO     LGT RAIN  39  39 100 E12       29.64F FOG

$$

LMZ046-743>745-200900-
SOUTHERN LAKE MICHIGAN

STATION/POSITION TIME  TEMP    WIND        PRES    WAVE
                       AIR SEA DIR/SP/G            HT
                 (UTC) (F)     (DEG/KT/KT) (MB)    (FT)
BURNS HARBOR     0740   35      80/  6/  9 1005.1F
MICHIGAN CITY    0740   36      30/ 10/ 11   N/A

$$

INZ004-005-014>016-021>024-200900-
NORTH CENTRAL INDIANA

CITY           SKY/WX    TMP DP  RH WIND       PRES   REMARKS
GOSHEN         LGT RAIN  38  35  89 E15G22    29.66F FOG
LOGANSPORT +   LGT RAIN  39  39 100 E10       29.63S
PERU/GRISSOM   LGT RAIN  41  41 100 E10       29.60S
ROCHESTER +    LGT RAIN  41  41 100 E12       29.64S
SOUTH BEND     RAIN      38  37  97 E8G16     29.66F FOG
WARSAW +       LGT RAIN  37  34  87 E10       29.64F

$$

INZ006>009-017-018-025>027-200900-
NORTHEAST INDIANA

CITY           SKY/WX    TMP DP  RH WIND       PRES   REMARKS
ANGOLA *+      CLOUDY    36  36 100 E9        29.69F
AUBURN +       LGT RAIN  36  34  93 E12       29.70F
FORT WAYNE     RAIN      39  36  89 E18       29.67F FOG
HUNTINGTON +   LGT RAIN  38  37  97 E8        29.64F
KENDALLVILLE + LGT RAIN  36  36 100 E12       29.68F

$$

INZ028-029-035-036-043>045-051>053-200900-
WEST CENTRAL INDIANA

CITY           SKY/WX    TMP DP  RH WIND       PRES   REMARKS
CRAWFORDSVL +  LGT SNOW  42  42 100 E3        29.59S
GREENCASTLE +  RAIN      43  43 100 CALM      29.60S
LAFAYETTE      LGT RAIN  43  43 100 NE6       29.60S FOG
TERRE HAUTE    RAIN      47  46  97 SE5       29.59S FOG

$$

INZ030>032-037>040-046>048-054>057-064-065-200900-
CENTRAL INDIANA

CITY           SKY/WX    TMP DP  RH WIND       PRES   REMARKS
CP ATTERBURY + RAIN      45  45 100 CALM      29.61S
FISHERS *+     CLOUDY    43  43 100 CALM      29.61F
FRANKFORT +    HVY RAIN  46  45  96 SE7       29.62R
GREENWOOD *+   CLOUDY    46  46 100 SE6       29.60F
INDIANAPOLIS   RAIN      45  44  97 CALM      29.60S FOG
-EAGLE CREEK   LGT RAIN  45  44  97 S3        29.60S FOG
KOKOMO +       LGT RAIN  41  40  96 E12       29.62F FOG
MARION +       LGT RAIN  41  39  93 E12       29.62F
MT COMFORT *+  CLOUDY    43  43 100 SE5       29.61S
SHELBYVILLE    RAIN      46  44  93 S3        29.60S FOG
ZIONSVILLE +   RAIN      43  42  98 SE5       29.60F

$$

INZ033-034-041-042-049-050-058-059-200900-
EAST CENTRAL INDIANA

CITY           SKY/WX    TMP DP  RH WIND       PRES   REMARKS
MUNCIE         LGT RAIN  44  42  93 E8        29.61F FOG

$$

INZ060-061-067>069-081>083-085>088-200900-
SOUTHWEST INDIANA

CITY           SKY/WX    TMP DP  RH WIND       PRES   REMARKS
EVANSVILLE     LGT RAIN  55  53  93 SW7       29.63S FOG
HUNTINGBURG *+ CLOUDY    54  54 100 SW8       29.62F
WASHINGTON +   RAIN      52  50  93 SW8       29.60S

$$

INZ062-063-066-070>080-084-089>092-200900-
SOUTH CENTRAL AND SOUTHEAST INDIANA

CITY           SKY/WX    TMP DP  RH WIND       PRES   REMARKS
BLOOMINGTON    HVY RAIN  47  45  93 SE5       29.61R FOG
MADISON *+     CLOUDY    50  46  87 CALM      29.62S
NORTH VERNON + RAIN     N/A N/A N/A CALM      29.60F
SEYMOUR +      LGT RAIN  48  48 100 NW5       29.61R

$$





USA.gov is the U.S. government's official web portal to all federal, state and local government web resources and services.